WZZ98FZ EDDB-EPWA

Flight info

Callsign WZZ98FZ
Flight time N/A
Altitude 33000
Route ARSAP3Q/06R ARSAP Y209 KELOD DCT OBOKU DCT DOSIX DCT BIMPA BIMP6U
Aircraft A21N/M-SDE2E3FGHIJ1RWXY/LB1

Departure

Time 2026-05-05 18:45
Airport Berlin Brandenburg Airport (EDDB)

Arrival

Time N/A
Airport Warsaw Chopin Airport (EPWA)
Time Latitude Longitude Altitude Speed Heading
2026-05-05 18:07 52.36550 13.50482 162 ft 0 kts 67°
2026-05-05 18:33 52.36543 13.50456 162 ft 3 kts 67°
2026-05-05 18:34 52.36536 13.50427 162 ft 3 kts 65°
2026-05-05 18:34 52.36524 13.50404 162 ft 3 kts 53°
2026-05-05 18:34 52.36509 13.50386 162 ft 3 kts 358°
2026-05-05 18:34 52.36506 13.50386 162 ft 0 kts 344°
2026-05-05 18:38 52.36507 13.50385 162 ft 2 kts 342°
2026-05-05 18:39 52.36553 13.50342 162 ft 8 kts 328°
2026-05-05 18:39 52.36603 13.50301 162 ft 8 kts 339°
2026-05-05 18:39 52.36648 13.50274 162 ft 0 kts 339°
2026-05-05 18:40 52.36648 13.50273 162 ft 0 kts 339°
2026-05-05 18:40 52.36702 13.50239 162 ft 11 kts 339°
2026-05-05 18:40 52.36756 13.50204 162 ft 0 kts 338°
2026-05-05 18:41 52.36758 13.50203 162 ft 3 kts 337°
2026-05-05 18:41 52.36809 13.50102 162 ft 16 kts 264°
2026-05-05 18:41 52.36779 13.49948 161 ft 12 kts 249°
2026-05-05 18:42 52.36749 13.49816 161 ft 12 kts 251°
2026-05-05 18:42 52.36712 13.49660 161 ft 21 kts 249°
2026-05-05 18:42 52.36655 13.49413 161 ft 23 kts 249°
2026-05-05 18:42 52.36597 13.49165 161 ft 23 kts 249°
2026-05-05 18:43 52.36539 13.48920 161 ft 23 kts 249°
2026-05-05 18:43 52.36480 13.48679 161 ft 23 kts 247°
2026-05-05 18:43 52.36445 13.48445 161 ft 16 kts 293°
2026-05-05 18:43 52.36525 13.48369 161 ft 13 kts 339°
2026-05-05 18:44 52.36614 13.48312 159 ft 20 kts 336°
2026-05-05 18:44 52.36738 13.48374 155 ft 19 kts 66°
2026-05-05 18:44 52.36854 13.48861 155 ft 75 kts 69°
2026-05-05 18:44 52.37120 13.49988 159 ft 137 kts 69°
2026-05-05 18:45 52.37389 13.51081 205 ft 165 kts 68°
2026-05-05 18:45 52.37789 13.52857 717 ft 167 kts 68°
2026-05-05 18:45 52.38199 13.54618 1393 ft 167 kts 68°
2026-05-05 18:45 52.38627 13.56407 2100 ft 176 kts 68°
2026-05-05 18:46 52.39109 13.58417 2444 ft 201 kts 68°
2026-05-05 18:46 52.39639 13.60645 2852 ft 222 kts 69°
2026-05-05 18:46 52.40236 13.63165 3164 ft 250 kts 69°
2026-05-05 18:46 52.40875 13.65871 3911 ft 258 kts 69°
2026-05-05 18:47 52.41528 13.68642 4756 ft 264 kts 69°
2026-05-05 18:47 52.42195 13.71476 5603 ft 270 kts 69°
2026-05-05 18:47 52.42875 13.74372 6468 ft 275 kts 69°
2026-05-05 18:47 52.43574 13.77341 7247 ft 282 kts 68°
2026-05-05 18:48 52.44362 13.80320 8044 ft 288 kts 65°
2026-05-05 18:48 52.45218 13.83327 8868 ft 293 kts 65°
2026-05-05 18:48 52.46097 13.86369 9662 ft 298 kts 65°
2026-05-05 18:48 52.46988 13.89453 10434 ft 301 kts 65°
2026-05-05 18:49 52.47891 13.92579 11196 ft 305 kts 65°
2026-05-05 18:49 52.48803 13.95747 11932 ft 310 kts 65°
2026-05-05 18:49 52.49732 13.98976 12687 ft 315 kts 65°
2026-05-05 18:49 52.50672 14.02252 13444 ft 320 kts 66°
2026-05-05 18:50 52.51628 14.05588 14144 ft 325 kts 66°
2026-05-05 18:50 52.52579 14.08915 14835 ft 328 kts 66°
2026-05-05 18:50 52.53398 14.12426 15484 ft 332 kts 78°
2026-05-05 18:50 52.53566 14.16198 16125 ft 333 kts 99°
2026-05-05 18:51 52.52902 14.19855 16555 ft 340 kts 122°
2026-05-05 18:51 52.51471 14.23017 16823 ft 353 kts 135°
2026-05-05 18:51 52.49738 14.25984 17071 ft 368 kts 137°
2026-05-05 18:51 52.47893 14.29037 17313 ft 384 kts 137°
2026-05-05 18:52 52.45984 14.32215 17652 ft 396 kts 137°
2026-05-05 18:52 52.44044 14.35473 18172 ft 402 kts 137°
2026-05-05 18:52 52.42083 14.38782 18689 ft 406 kts 137°
2026-05-05 18:52 52.40106 14.42122 19220 ft 409 kts 137°
2026-05-05 18:53 52.38117 14.45483 19757 ft 412 kts 137°
2026-05-05 18:53 52.36115 14.48864 20277 ft 415 kts 137°
2026-05-05 18:53 52.34101 14.52262 20812 ft 417 kts 137°
2026-05-05 18:53 52.32073 14.55679 21322 ft 420 kts 138°
2026-05-05 18:54 52.30024 14.59127 21811 ft 424 kts 138°
2026-05-05 18:54 52.27961 14.62598 22298 ft 428 kts 137°
2026-05-05 18:54 52.26003 14.66299 22719 ft 434 kts 130°
2026-05-05 18:54 52.24419 14.70524 22830 ft 439 kts 118°
2026-05-05 18:55 52.23366 14.75228 22831 ft 445 kts 107°
2026-05-05 18:55 52.22897 14.80239 22830 ft 449 kts 96°
2026-05-05 18:55 52.22781 14.85339 22838 ft 451 kts 92°
2026-05-05 18:55 52.22801 14.90463 22830 ft 452 kts 91°
2026-05-05 18:56 52.22881 14.95592 22826 ft 452 kts 90°
2026-05-05 18:56 52.22974 15.00711 22833 ft 452 kts 90°
2026-05-05 18:56 52.23057 15.05829 22836 ft 452 kts 91°
2026-05-05 18:56 52.23122 15.10958 22834 ft 452 kts 91°
2026-05-05 18:57 52.23171 15.16083 22833 ft 452 kts 91°
2026-05-05 18:57 52.23208 15.21145 22837 ft 451 kts 91°
2026-05-05 18:57 52.23237 15.26256 22842 ft 451 kts 91°
2026-05-05 18:57 52.23261 15.31384 22835 ft 451 kts 91°
2026-05-05 18:58 52.23283 15.36502 22833 ft 451 kts 91°
2026-05-05 18:58 52.23302 15.41625 22832 ft 451 kts 91°
2026-05-05 18:58 52.23320 15.46742 22831 ft 452 kts 92°
2026-05-05 18:58 52.23336 15.51866 22832 ft 452 kts 91°
2026-05-05 18:59 52.23351 15.56989 22832 ft 452 kts 91°
2026-05-05 18:59 52.23363 15.62118 22829 ft 452 kts 91°
2026-05-05 18:59 52.23374 15.67241 22829 ft 452 kts 91°
2026-05-05 18:59 52.23383 15.72374 22830 ft 452 kts 92°
2026-05-05 19:00 52.23389 15.77502 22824 ft 452 kts 92°
2026-05-05 19:00 52.23393 15.82633 22828 ft 452 kts 92°
2026-05-05 19:00 52.23397 15.87755 22838 ft 453 kts 91°
2026-05-05 19:00 52.23442 15.92917 23221 ft 457 kts 90°
2026-05-05 19:01 52.23520 15.98114 23692 ft 459 kts 90°
2026-05-05 19:01 52.23613 16.03325 24092 ft 461 kts 90°
2026-05-05 19:01 52.23710 16.08564 24542 ft 461 kts 90°
2026-05-05 19:01 52.23802 16.13753 25318 ft 451 kts 90°
2026-05-05 19:02 52.23888 16.18691 26500 ft 429 kts 90°
2026-05-05 19:02 52.23967 16.23436 28053 ft 397 kts 90°
2026-05-05 19:02 52.24035 16.27719 29409 ft 371 kts 90°
2026-05-05 19:02 52.24097 16.31844 30447 ft 345 kts 91°
2026-05-05 19:03 52.24150 16.35584 31404 ft 314 kts 91°
2026-05-05 19:03 52.24196 16.39035 31863 ft 302 kts 91°
2026-05-05 19:03 52.24225 16.42515 31195 ft 325 kts 91°
2026-05-05 19:03 52.24242 16.46591 29562 ft 387 kts 92°
2026-05-05 19:04 52.24251 16.50939 30350 ft 358 kts 93°
2026-05-05 19:04 52.24241 16.55021 30721 ft 361 kts 92°
2026-05-05 19:04 52.24223 16.59160 30137 ft 388 kts 92°
2026-05-05 19:04 52.24195 16.63723 29481 ft 416 kts 92°
2026-05-05 19:05 52.24157 16.68663 28770 ft 444 kts 92°
2026-05-05 19:05 52.24112 16.73782 28111 ft 469 kts 93°
2026-05-05 19:05 52.24054 16.79108 28478 ft 469 kts 93°
2026-05-05 19:05 52.23972 16.84449 28738 ft 473 kts 93°
2026-05-05 19:06 52.23889 16.89827 29009 ft 475 kts 93°
2026-05-05 19:06 52.23804 16.95223 29294 ft 478 kts 93°
2026-05-05 19:06 52.23718 17.00648 29574 ft 480 kts 93°
2026-05-05 19:06 52.23630 17.06107 29802 ft 482 kts 93°
2026-05-05 19:07 52.23542 17.11582 30043 ft 485 kts 93°
2026-05-05 19:07 52.23452 17.17090 30235 ft 487 kts 92°
2026-05-05 19:07 52.23361 17.22642 30345 ft 492 kts 92°
2026-05-05 19:07 52.23465 17.28265 30347 ft 500 kts 86°
2026-05-05 19:08 52.23423 17.39724 30383 ft 511 kts 97°
2026-05-05 19:08 52.23056 17.45463 30879 ft 503 kts 98°
2026-05-05 19:08 52.22672 17.51037 31807 ft 487 kts 98°
2026-05-05 19:09 52.22294 17.56469 32487 ft 478 kts 98°
2026-05-05 19:09 52.21919 17.61839 32790 ft 473 kts 98°
2026-05-05 19:09 52.21185 17.72462 32820 ft 472 kts 96°
2026-05-05 19:10 52.21200 17.83159 32821 ft 473 kts 85°
2026-05-05 19:10 52.22145 17.93793 32820 ft 474 kts 82°
2026-05-05 19:11 52.23183 18.04327 32820 ft 474 kts 81°
2026-05-05 19:11 52.24267 18.14931 32815 ft 473 kts 81°
2026-05-05 19:12 52.25353 18.25521 32813 ft 473 kts 81°
2026-05-05 19:12 52.26428 18.36105 32810 ft 473 kts 81°
2026-05-05 19:13 52.27490 18.46699 32811 ft 473 kts 81°
2026-05-05 19:13 52.28542 18.57300 32817 ft 474 kts 81°
2026-05-05 19:14 52.29587 18.67939 32813 ft 473 kts 81°
2026-05-05 19:14 52.30477 18.78574 32795 ft 471 kts 88°
2026-05-05 19:15 52.30556 18.83887 32340 ft 467 kts 90°
2026-05-05 19:15 52.30554 18.89177 31655 ft 466 kts 91°
2026-05-05 19:15 52.30525 18.94485 30915 ft 466 kts 91°
2026-05-05 19:15 52.30488 18.99774 30179 ft 466 kts 91°
2026-05-05 19:16 52.30445 19.05081 29416 ft 466 kts 92°
2026-05-05 19:16 52.30401 19.10289 28745 ft 463 kts 92°
2026-05-05 19:16 52.30354 19.15526 28116 ft 459 kts 92°
2026-05-05 19:16 52.30304 19.20708 27606 ft 452 kts 92°
2026-05-05 19:17 52.30253 19.25812 27024 ft 448 kts 92°
2026-05-05 19:17 52.30200 19.30889 26438 ft 444 kts 92°
2026-05-05 19:17 52.30145 19.35915 25875 ft 440 kts 92°
2026-05-05 19:17 52.30089 19.40893 25330 ft 437 kts 92°
2026-05-05 19:18 52.30031 19.45863 24798 ft 433 kts 92°
2026-05-05 19:18 52.29972 19.50690 24276 ft 429 kts 92°
2026-05-05 19:18 52.29911 19.55543 23758 ft 426 kts 92°
2026-05-05 19:18 52.29849 19.60358 23204 ft 422 kts 92°
2026-05-05 19:19 52.29785 19.65134 22594 ft 419 kts 92°
2026-05-05 19:19 52.29719 19.69880 21999 ft 416 kts 92°
2026-05-05 19:19 52.29653 19.74576 21415 ft 412 kts 92°
2026-05-05 19:19 52.29585 19.79238 20839 ft 408 kts 92°
2026-05-05 19:20 52.29516 19.83856 20270 ft 405 kts 93°
2026-05-05 19:20 52.29446 19.88433 19715 ft 402 kts 92°
2026-05-05 19:20 52.29374 19.92976 19164 ft 398 kts 92°
2026-05-05 19:20 52.29302 19.97493 18619 ft 395 kts 93°
2026-05-05 19:21 52.29228 20.01964 18031 ft 394 kts 93°
2026-05-05 19:21 52.29153 20.06419 17442 ft 390 kts 93°
2026-05-05 19:21 52.29077 20.10833 16842 ft 387 kts 93°
2026-05-05 19:21 52.29000 20.15213 16248 ft 384 kts 94°
2026-05-05 19:22 52.28922 20.19568 15635 ft 382 kts 94°
2026-05-05 19:22 52.28842 20.23891 15043 ft 380 kts 94°
2026-05-05 19:22 52.28762 20.28187 14481 ft 378 kts 94°
2026-05-05 19:22 52.28680 20.32464 13911 ft 376 kts 94°
2026-05-05 19:23 52.28598 20.36715 13320 ft 374 kts 94°
2026-05-05 19:23 52.28514 20.40945 12732 ft 370 kts 94°
2026-05-05 19:23 52.28430 20.45129 12185 ft 366 kts 94°
2026-05-05 19:23 52.28346 20.49215 11646 ft 363 kts 94°
2026-05-05 19:24 52.28260 20.53367 11089 ft 360 kts 95°
2026-05-05 19:24 52.28174 20.57422 10557 ft 356 kts 94°
2026-05-05 19:24 52.28089 20.61377 10218 ft 347 kts 95°
2026-05-05 19:24 52.28006 20.65234 10058 ft 333 kts 95°
2026-05-05 19:25 52.27925 20.68932 9860 ft 318 kts 95°
2026-05-05 19:25 52.27847 20.72481 9365 ft 308 kts 96°
2026-05-05 19:25 52.27767 20.75956 8803 ft 305 kts 96°
2026-05-05 19:25 52.27686 20.79403 8382 ft 302 kts 96°
2026-05-05 19:26 52.27605 20.82814 7958 ft 299 kts 96°
2026-05-05 19:26 52.27524 20.86195 7519 ft 297 kts 95°
2026-05-05 19:26 52.27443 20.89552 7090 ft 295 kts 95°
2026-05-05 19:26 52.27362 20.92883 6675 ft 292 kts 95°
2026-05-05 19:27 52.27281 20.96177 6268 ft 290 kts 95°
2026-05-05 19:27 52.27117 20.99440 5824 ft 286 kts 104°
2026-05-05 19:27 52.26410 21.02404 5336 ft 277 kts 128°
2026-05-05 19:27 52.25082 21.04590 4891 ft 270 kts 149°
2026-05-05 19:28 52.23475 21.06138 4440 ft 267 kts 155°
2026-05-05 19:28 52.21833 21.07533 4082 ft 264 kts 156°
2026-05-05 19:28 52.20203 21.08901 3997 ft 264 kts 155°
2026-05-05 19:28 52.18569 21.10283 3993 ft 265 kts 155°
2026-05-05 19:29 52.16973 21.11645 3989 ft 250 kts 155°
2026-05-05 19:29 52.15482 21.12930 3989 ft 237 kts 156°
2026-05-05 19:29 52.14521 21.13766 3994 ft 236 kts 156°
2026-05-05 19:29 52.12587 21.15450 3911 ft 236 kts 156°
2026-05-05 19:30 52.11142 21.16711 3817 ft 236 kts 156°
2026-05-05 19:30 52.10185 21.17546 3756 ft 236 kts 156°
2026-05-05 19:30 52.08744 21.18805 3668 ft 235 kts 156°
2026-05-05 19:30 52.07307 21.20059 3516 ft 235 kts 156°
2026-05-05 19:31 52.05870 21.21315 3151 ft 234 kts 156°
2026-05-05 19:31 52.04443 21.22562 3010 ft 232 kts 156°
2026-05-05 19:31 52.03019 21.23802 2991 ft 233 kts 156°
2026-05-05 19:31 52.01581 21.25038 2988 ft 235 kts 160°
2026-05-05 19:32 51.99968 21.25824 2991 ft 248 kts 178°
2026-05-05 19:32 51.98286 21.25513 2981 ft 237 kts 205°
2026-05-05 19:32 51.97030 21.24036 2989 ft 216 kts 232°
2026-05-05 19:32 51.96423 21.21902 2994 ft 214 kts 258°
2026-05-05 19:33 51.96518 21.19482 2993 ft 221 kts 285°
2026-05-05 19:33 51.97351 21.17350 3000 ft 230 kts 311°
2026-05-05 19:33 51.98636 21.15749 2981 ft 236 kts 322°
2026-05-05 19:33 52.00031 21.14322 2989 ft 238 kts 323°
2026-05-05 19:34 52.01439 21.12904 2987 ft 238 kts 323°
2026-05-05 19:34 52.02838 21.11475 2994 ft 238 kts 322°
2026-05-05 19:34 52.04290 21.09961 2994 ft 260 kts 322°
2026-05-05 19:35 52.07124 21.06143 2635 ft 266 kts 308°
2026-05-05 19:35 52.08433 21.04065 2277 ft 259 kts 317°
2026-05-05 19:35 52.09908 21.02458 1894 ft 253 kts 329°
2026-05-05 19:35 52.11452 21.01178 1459 ft 242 kts 333°